Location: Flynn Junction
(40.1314°N, 99.5162°W)
Time: 21:22:13
(UTC+00:00)

Gblst 52 Del rocket - Pass Details

Date: 29 October 2020
Orbit: 805 x 1365 km, 51.5° (Epoch: 30 November)

Event Time Altitude Azimuth Distance (km) Brightness Sun altitude
Exits shadow 12:24:22 - 244° (WSW) 3,023 6.6 -8.3°
Reaches altitude 10° 12:25:57 10° 247° (WSW) 2,433 6.1 -8.0°
Maximum altitude 12:31:33 64° 329° (NNW) 978 4.4 -6.9°
Drops below altitude 10° 12:37:52 10° 50° (NE) 2,723 7.4 -5.8°
Sets 12:40:41 0° 54° (NE) 3,761 8.2 -5.2°
